Terre Haute, IN

11:46 AM EST on January 16, 2017 (GMT -0500)
Terre Haute International-Hulman

Weather History for KHUF - March, 2014

Change the Weather History Date:

Sunday, March 16, 2014

  Actual Average Record
Temperature  
Mean Temperature 31 °F 43 °F  
Max Temperature 38 °F 53 °F 78 °F (2012)
Min Temperature 23 °F 32 °F 13 °F (1970)
Degree Days  
Heating Degree Days 34 22  
Month to date heating degree days 486 401  
Since 1 July heating degree days 5221 4564  
Cooling Degree Days 0 0  
Month to date cooling degree days 0 0  
Year to date cooling degree days 0 0  
Moisture  
Dew Point 19 °F    
Average Humidity 61    
Maximum Humidity 75    
Minimum Humidity 47    
Precipitation  
Precipitation 0.00 in 0.13 in 0.75 in (1963)
Month to date precipitation 1.06 1.58  
Year to date precipitation 5.09 5.87  
Sea Level Pressure  
Sea Level Pressure 30.09 in    
Wind  
Wind Speed 19 mph (NE)    
Max Wind Speed 29 mph    
Max Gust Speed 38 mph    
Visibility 10 miles    
Events Snow    
T = Trace of Precipitation, MM = Missing Value Source: NWS Daily Summary

Daily Weather History Graph

Daily Weather History Graph

Search for Another Location

Airport or City:

Trip Planner

Search our weather history database for the weather conditions in past years. The results will help you decide how hot, cold, wet, or windy it might be!

Date:

Astronomy

Mar. 16, 2014 Rise Set
Actual Time 7:59 AM EDT 7:57 PM EDT
Civil Twilight 7:32 AM EDT 8:24 PM EDT
Nautical Twilight 7:01 AM EDT 8:55 PM EDT
Astronomical Twilight 6:29 AM EDT 9:26 PM EDT
Moon 8:14 PM EDT 7:42 AM EDT
Length of Visible Light 12h 51m
Length of Day
11h 58m
Full, 100% of the Moon is Illuminated
Mar 16
Full
Mar 16
Full
Mar 23
Last Quarter
Mar 30
New
Apr 7
First Quarter

Hourly Weather History & Observations

Time (EDT) Temp. Windchill Dew Point Humidity Pressure Visibility Wind Dir Wind Speed Gust Speed Precip Events Conditions
12:53 AM 37.0 °F 28.9 °F 28.9 °F 73% 30.08 in 10.0 mi ENE 12.7 mph 23.0 mph N/A   Clear
1:53 AM 36.0 °F 26.7 °F 28.0 °F 73% 30.09 in 10.0 mi NE 15.0 mph - N/A   Clear
2:53 AM 35.1 °F 24.8 °F 27.0 °F 72% 30.11 in 10.0 mi NE 17.3 mph - N/A   Clear
3:53 AM 33.1 °F 22.6 °F 25.0 °F 72% 30.12 in 10.0 mi NE 16.1 mph - N/A   Scattered Clouds
4:53 AM 32.0 °F 20.5 °F 23.0 °F 69% 30.10 in 10.0 mi NE 18.4 mph - N/A   Scattered Clouds
5:53 AM 32.0 °F 19.8 °F 23.0 °F 69% 30.09 in 10.0 mi NE 20.7 mph 26.5 mph N/A   Overcast
6:53 AM 32.0 °F 20.8 °F 21.9 °F 66% 30.09 in 10.0 mi NE 17.3 mph 31.1 mph N/A   Clear
7:53 AM 30.9 °F 18.4 °F 21.0 °F 67% 30.09 in 9.0 mi NE 20.7 mph 29.9 mph 0.00 in Snow Light Snow
8:53 AM 30.9 °F 18.1 °F 19.9 °F 64% 30.10 in 9.0 mi NE 21.9 mph 31.1 mph 0.00 in Snow Light Snow
9:53 AM 30.9 °F 16.9 °F 14.0 °F 50% 30.12 in 9.0 mi ENE 26.5 mph 34.5 mph 0.00 in Snow Light Snow
10:53 AM 30.9 °F 18.4 °F 19.0 °F 61% 30.15 in 9.0 mi NE 20.7 mph 31.1 mph 0.00 in Snow Light Snow
11:53 AM 33.1 °F 20.9 °F 19.0 °F 56% 30.14 in 9.0 mi NE 21.9 mph 32.2 mph 0.00 in Snow Light Snow
12:53 PM 33.1 °F 21.2 °F 17.1 °F 52% 30.13 in 9.0 mi NE 20.7 mph 33.4 mph 0.00 in Snow Light Snow
1:53 PM 33.1 °F 19.8 °F 17.1 °F 52% 30.11 in 10.0 mi NE 26.5 mph 31.1 mph 0.00 in Snow Light Snow
2:53 PM 33.1 °F 20.9 °F 16.0 °F 50% 30.10 in 9.0 mi NE 21.9 mph 29.9 mph 0.00 in Snow Light Snow
3:53 PM 33.1 °F 22.2 °F 19.0 °F 56% 30.08 in 10.0 mi NE 17.3 mph 29.9 mph 0.00 in   Mostly Cloudy
4:53 PM 32.0 °F 19.5 °F 18.0 °F 56% 30.07 in 9.0 mi NE 21.9 mph 29.9 mph 0.00 in Snow Light Snow
5:53 PM 30.9 °F 19.1 °F 17.1 °F 57% 30.05 in 10.0 mi NE 18.4 mph 33.4 mph 0.00 in   Clear
6:53 PM 30.0 °F 18.3 °F 16.0 °F 56% 30.06 in 10.0 mi NE 17.3 mph - N/A   Partly Cloudy
7:53 PM 28.0 °F 15.7 °F 14.0 °F 56% 30.07 in 10.0 mi NE 17.3 mph 29.9 mph N/A   Partly Cloudy
8:53 PM 26.1 °F 13.1 °F 14.0 °F 60% 30.07 in 10.0 mi NNE 17.3 mph 24.2 mph N/A   Clear
9:53 PM 26.1 °F 13.1 °F 12.9 °F 58% 30.08 in 10.0 mi NE 17.3 mph 24.2 mph N/A   Clear
10:53 PM 25.0 °F 12.6 °F 12.9 °F 60% 30.10 in 10.0 mi NE 15.0 mph - N/A   Clear
11:53 PM 24.1 °F 12.0 °F 12.9 °F 62% 30.08 in 10.0 mi NE 13.8 mph 24.2 mph N/A   Clear